FW2664 Weather Reports


Display with metric or nautical units.
time (UTC)temp
F
wind
direction
speed
MPH
gust
MPH
rain 1hr
in
rain 24hr
in
rain mn
in
humidity
%
barometer
mb
20260831132203 86 86 0.0 2.0 0.00 0.00 0.00 67 1019.2
20260831131702 86 112 1.0 2.0 0.00 0.00 0.00 67 1019.3
20260831131159 86 132 0.0 3.0 0.00 0.00 0.00 67 1019.1
20260831130654 86 76 0.0 2.0 0.00 0.00 0.00 67 1019.0
20260831130150 86 125 2.0 2.0 0.00 0.00 0.00 66 1019.1
20260831125648 86 89 0.0 2.0 0.00 0.00 0.00 68 1019.0
20260831125144 84 61 0.0 2.0 0.00 0.00 0.00 70 1019.1
20260831124639 84 63 0.0 2.0 0.00 0.00 0.00 72 1019.2
20260831124136 83 44 0.0 2.0 0.00 0.00 0.00 74 1019.0
20260831123635 82 74 0.0 2.0 0.00 0.00 0.00 77 1019.1
20260831123134 80 64 1.0 2.0 0.00 0.00 0.00 84 1018.9
20260831122634 78 65 0.0 2.0 0.00 0.00 0.00 88 1018.9
20260831122130 76 98 2.0 2.0 0.00 0.00 0.00 92 1018.9
20260831121629 74 69 1.0 2.0 0.00 0.00 0.00 96 1018.8
20260831121126 73 97 1.0 3.0 0.00 0.00 0.00 96 1018.8
20260831120627 73 75 0.0 2.0 0.00 0.00 0.00 96 1018.8
20260831120122 72 84 0.0 2.0 0.00 0.00 0.00 96 1018.7
20260831115618 72 81 1.0 2.0 0.00 0.00 0.00 96 1018.6
20260831115113 72 58 2.0 2.0 0.00 0.00 0.00 96 1018.5
20260831114612 72 89 1.0 2.0 0.00 0.00 0.00 96 1018.6
20260831114107 72 57 2.0 2.0 0.00 0.00 0.00 96 1018.5
20260831113606 72 63 1.0 2.0 0.00 0.00 0.00 96 1018.6
20260831113102 72 46 1.0 2.0 0.00 0.00 0.00 96 1018.6
20260831112600 71 70 1.0 2.0 0.00 0.00 0.00 96 1018.6
20260831112056 71 80 0.0 2.0 0.00 0.00 0.00 96 1018.5
20260831111552 71 78 1.0 2.0 0.00 0.00 0.00 96 1018.6
20260831111048 72 91 0.0 2.0 0.00 0.00 0.00 96 1018.5
20260831110543 71 113 2.0 2.0 0.00 0.00 0.00 96 1018.4
20260831110038 72 75 1.0 2.0 0.00 0.00 0.00 96 1018.3
20260831105537 72 81 1.0 2.0 0.00 0.00 0.00 96 1018.3
20260831105032 72 66 0.0 2.0 0.00 0.00 0.00 96 1018.2
20260831104528 72 61 1.0 2.0 0.00 0.00 0.00 96 1018.1
20260831104024 72 72 1.0 2.0 0.00 0.00 0.00 96 1018.4
20260831103519 72 59 1.0 2.0 0.00 0.00 0.00 96 1018.1
20260831103015 72 46 2.0 2.0 0.00 0.00 0.00 96 1018.1
20260831102514 72 56 2.0 2.0 0.00 0.00 0.00 96 1017.9
20260831102010 72 73 2.0 2.0 0.00 0.00 0.00 96 1017.9
20260831101505 73 74 1.0 2.0 0.00 0.00 0.00 96 1017.6
20260831101001 73 66 1.0 2.0 0.00 0.00 0.00 96 1017.9
20260831100456 73 68 2.0 2.0 0.00 0.00 0.00 96 1017.8
20260831095951 73 71 1.0 2.0 0.00 0.00 0.00 96 1017.9
20260831095451 73 58 1.0 2.0 0.00 0.00 0.00 96 1017.5
20260831094946 73 78 1.0 3.0 0.00 0.00 0.00 96 1017.5
20260831094442 73 61 0.0 2.0 0.00 0.00 0.00 96 1017.3
20260831093937 73 76 0.0 2.0 0.00 0.00 0.00 96 1017.6
20260831093432 73 73 1.0 2.0 0.00 0.00 0.00 96 1017.4
20260831092929 73 94 1.0 2.0 0.00 0.00 0.00 96 1017.5
20260831092425 73 69 1.0 2.0 0.00 0.00 0.00 96 1017.5
20260831091920 74 55 2.0 2.0 0.00 0.00 0.00 96 1017.4
20260831091414 74 64 0.0 2.0 0.00 0.00 0.00 96 1017.5
20260831090909 74 59 1.0 2.0 0.00 0.00 0.00 96 1017.5
20260831090401 74 93 2.0 2.0 0.00 0.00 0.00 96 1017.5
20260831085857 74 70 0.0 2.0 0.00 0.00 0.00 96 1017.3
20260831085356 74 60 0.0 2.0 0.00 0.00 0.00 96 1017.2
20260831084850 73 58 0.0 2.0 0.00 0.00 0.00 96 1017.1
20260831084347 73 84 0.0 2.0 0.00 0.00 0.00 95 1017.1
20260831083843 74 74 2.0 2.0 0.00 0.00 0.00 95 1016.9
20260831083338 74 76 1.0 2.0 0.00 0.00 0.00 95 1017.1
20260831082837 74 86 1.0 2.0 0.00 0.00 0.00 95 1017.0
20260831082331 74 84 2.0 2.0 0.00 0.00 0.00 95 1017.1
20260831081827 74 85 1.0 2.0 0.00 0.00 0.00 95 1017.1
20260831081323 74 65 0.0 2.0 0.00 0.00 0.00 95 1017.1
20260831080819 74 77 0.0 2.0 0.00 0.00 0.00 95 1017.0
20260831080318 74 65 0.0 2.0 0.00 0.00 0.00 94 1017.0
20260831075815 74 82 1.0 2.0 0.00 0.00 0.00 94 1016.9
20260831075310 74 84 0.0 2.0 0.00 0.00 0.00 95 1016.9
20260831074809 74 67 1.0 2.0 0.00 0.00 0.00 94 1017.0
20260831074308 74 68 0.0 2.0 0.00 0.00 0.00 94 1016.8
20260831073804 74 83 1.0 2.0 0.00 0.00 0.00 94 1016.9
20260831073303 74 64 0.0 2.0 0.00 0.00 0.00 94 1017.0
20260831072758 74 78 1.0 2.0 0.00 0.00 0.00 94 1016.9
20260831072254 75 95 2.0 2.0 0.00 0.00 0.00 93 1017.0
20260831071750 75 60 0.0 2.0 0.00 0.00 0.00 93 1017.0
20260831071244 75 78 1.0 2.0 0.00 0.00 0.00 93 1017.0
20260831070739 75 85 1.0 2.0 0.00 0.00 0.00 93 1017.0
20260831070238 75 124 1.0 2.0 0.00 0.00 0.00 92 1017.1
20260831065737 75 54 1.0 2.0 0.00 0.00 0.00 93 1017.2
20260831065235 75 46 1.0 2.0 0.00 0.00 0.00 92 1017.1
20260831064731 75 44 2.0 2.0 0.00 0.00 0.00 92 1017.1
20260831064226 75 99 2.0 2.0 0.00 0.00 0.00 92 1017.4
20260831063721 75 74 1.0 2.0 0.00 0.00 0.00 92 1017.2
20260831063217 76 55 1.0 2.0 0.00 0.00 0.00 92 1017.2
20260831062716 76 42 0.0 2.0 0.00 0.00 0.00 92 1017.1
20260831062211 76 93 1.0 2.0 0.00 0.00 0.00 91 1017.3
20260831061709 76 96 0.0 2.0 0.00 0.00 0.00 91 1017.3
20260831061205 76 89 0.0 2.0 0.00 0.00 0.00 91 1017.4
20260831060701 76 52 0.0 2.0 0.00 0.00 0.00 90 1017.3
20260831060200 76 57 1.0 2.0 0.00 0.00 0.00 90 1017.4
20260831055700 76 54 0.0 2.0 0.00 0.00 0.00 90 1017.4
20260831055155 76 57 0.0 2.0 0.00 0.00 0.00 89 1017.6
20260831054650 77 86 1.0 2.0 0.00 0.00 0.00 89 1017.5
20260831054149 77 343 0.0 2.0 0.00 0.00 0.00 89 1017.2
20260831053644 77 77 1.0 2.0 0.00 0.00 0.00 88 1017.2
20260831053142 77 88 1.0 2.0 0.00 0.00 0.00 88 1017.1
20260831052642 77 81 1.0 2.0 0.00 0.00 0.00 88 1017.5
20260831052141 77 66 2.0 2.0 0.00 0.00 0.00 88 1017.3
20260831051639 77 78 1.0 3.0 0.00 0.00 0.00 87 1017.2
20260831051138 77 86 0.0 2.0 0.00 0.00 0.00 87 1017.2
20260831050633 77 66 0.0 2.0 0.00 0.00 0.00 86 1017.0
20260831050132 78 82 0.0 2.0 0.00 0.00 0.00 86 1017.1
20260831045632 78 47 1.0 2.0 0.00 0.00 0.00 86 1017.2
20260831045127 78 105 0.0 2.0 0.00 0.00 0.00 85 1017.0
20260831044622 78 73 0.0 3.0 0.00 0.00 0.00 84 1017.2
20260831044117 78 65 0.0 2.0 0.00 0.00 0.00 84 1017.0
20260831043613 78 78 0.0 2.0 0.00 0.00 0.00 84 1017.1
20260831043108 78 108 0.0 2.0 0.00 0.00 0.00 83 1017.2
20260831042608 78 71 0.0 2.0 0.00 0.00 0.00 83 1017.2
20260831042102 79 82 2.0 2.0 0.00 0.00 0.00 83 1017.4
20260831041557 79 68 2.0 2.0 0.00 0.00 0.00 82 1017.5
20260831041057 79 26 1.0 2.0 0.00 0.00 0.00 83 1017.5
20260831040551 79 87 0.0 2.0 0.00 0.00 0.00 82 1017.5
20260831040046 79 82 0.0 3.0 0.00 0.00 0.00 81 1017.5
20260831035543 79 75 1.0 2.0 0.00 0.00 0.00 81 1017.4
20260831035039 79 70 1.0 2.0 0.00 0.00 0.00 82 1017.8
20260831034538 79 66 1.0 2.0 0.00 0.00 0.00 82 1017.5
20260831034033 78 46 2.0 2.0 0.00 0.00 0.00 82 1017.5
20260831033529 78 54 0.0 2.0 0.00 0.00 0.00 81 1017.6
20260831033024 78 69 1.0 2.0 0.00 0.00 0.00 81 1017.5
20260831032523 79 42 0.0 2.0 0.00 0.00 0.00 81 1017.4
20260831032019 79 61 0.0 2.0 0.00 0.00 0.00 80 1017.3
20260831031519 79 66 2.0 2.0 0.00 0.00 0.00 79 1017.3
20260831031018 79 48 1.0 2.0 0.00 0.00 0.00 79 1017.3
20260831030518 79 97 0.0 2.0 0.00 0.00 0.00 78 1017.2
20260831030017 80 38 1.0 2.0 0.00 0.00 0.00 78 1017.2
20260831025515 80 42 0.0 2.0 0.00 0.00 0.00 76 1017.2
20260831025011 80 89 0.0 2.0 0.00 0.00 0.00 76 1017.1
20260831024507 80 71 0.0 2.0 0.00 0.00 0.00 75 1017.2
20260831024006 81 48 0.0 2.0 0.00 0.00 0.00 74 1017.0
20260831023504 81 89 0.0 1.0 0.00 0.00 0.00 74 1017.0
20260831022959 82 77 0.0 2.0 0.00 0.00 0.00 74 1016.9
20260831022458 82 94 0.0 2.0 0.00 0.00 0.00 72 1016.8
20260831021953 82 59 1.0 2.0 0.00 0.00 0.00 72 1016.7
20260831021452 82 74 1.0 2.0 0.00 0.00 0.00 71 1016.9
20260831020948 82 75 0.0 2.0 0.00 0.00 0.00 72 1016.9
20260831020448 83 66 0.0 2.0 0.00 0.00 0.00 70 1016.8
20260831015942 83 38 1.0 2.0 0.00 0.00 0.00 70 1016.8
20260831015440 83 39 1.0 2.0 0.00 0.00 0.00 70 1016.6
20260831014939 83 77 0.0 2.0 0.00 0.00 0.00 69 1016.7
20260831014434 83 25 1.0 2.0 0.00 0.00 0.00 68 1016.7
20260831013930 83 101 0.0 2.0 0.00 0.00 0.00 68 1016.6
20260831013426 83 18 1.0 2.0 0.00 0.00 0.00 67 1016.6
20260831012925 84 35 1.0 2.0 0.00 0.00 0.00 67 1016.6
20260831012421 84 16 2.0 2.0 0.00 0.00 0.00 65 1016.6
20260831011920 83 104 0.0 1.0 0.00 0.00 0.00 67 1016.7
20260831011415 83 215 0.0 3.0 0.00 0.00 0.00 67 1016.4
20260831010912 83 47 0.0 2.0 0.00 0.00 0.00 69 1016.4
20260831010411 83 350 0.0 3.0 0.00 0.00 0.00 69 1016.4
20260831005907 83 279 1.0 4.0 0.00 0.00 0.00 69 1016.6
20260831005403 84 278 1.0 4.0 0.00 0.00 0.00 68 1016.5
20260831004857 84 232 1.0 3.0 0.00 0.00 0.00 68 1016.6
20260831004354 84 252 0.0 5.0 0.00 0.00 0.00 69 1016.3
20260831003849 84 201 1.0 3.0 0.00 0.00 0.00 69 1016.5
20260831003345 84 75 0.0 2.0 0.00 0.00 0.00 69 1016.4
20260831002844 84 337 2.0 3.0 0.00 0.00 0.00 68 1016.3
20260831002344 85 7 1.0 3.0 0.00 0.00 0.00 68 1016.4
20260831001839 85 275 2.0 4.0 0.00 0.00 0.00 67 1016.4
20260831001339 85 315 0.0 2.0 0.00 0.00 0.00 64 1016.4
20260831000837 86 258 0.0 2.0 0.00 0.00 0.00 63 1016.1
20260831000333 86 342 2.0 3.0 0.00 0.00 0.00 63 1016.1
20260830235830 86 335 2.0 4.0 0.00 0.00 0.00 63 1016.2
20260830235325 86 321 0.0 3.0 0.00 0.00 0.00 63 1016.2
20260830234820 87 110 2.0 3.0 0.00 0.00 0.00 60 1016.1
20260830234316 88 303 1.0 2.0 0.00 0.00 0.00 60 1016.1
20260830233812 88 344 2.0 2.0 0.00 0.00 0.00 59 1016.1
20260830233307 88 15 0.0 1.0 0.00 0.00 0.00 59 1016.1
20260830232802 88 89 0.0 2.0 0.00 0.00 0.00 57 1015.8
20260830232258 88 96 1.0 2.0 0.00 0.00 0.00 61 1015.9
20260830231754 88 57 0.0 1.0 0.00 0.00 0.00 60 1016.0
20260830231254 89 108 2.0 2.0 0.00 0.00 0.00 60 1015.8
20260830230749 89 60 0.0 2.0 0.00 0.00 0.00 60 1016.0
20260830230244 89 89 0.0 2.0 0.00 0.00 0.00 57 1015.8
20260830225743 90 80 1.0 2.0 0.00 0.00 0.00 58 1015.9
20260830225239 90 104 0.0 2.0 0.00 0.00 0.00 55 1015.9
20260830224738 91 37 0.0 2.0 0.00 0.00 0.00 54 1015.9
20260830224233 91 51 1.0 2.0 0.00 0.00 0.00 53 1016.0
20260830223730 91 65 0.0 2.0 0.00 0.00 0.00 53 1015.9
20260830223225 92 67 1.0 1.0 0.00 0.00 0.00 52 1015.7
20260830222720 93 32 0.0 1.0 0.00 0.00 0.00 50 1015.7
20260830222215 94 299 0.0 1.0 0.00 0.00 0.00 48 1016.0
20260830221711 95 63 0.0 1.0 0.00 0.00 0.00 45 1015.9
20260830221208 96 115 1.0 3.0 0.00 0.00 0.00 42 1015.9
20260830220703 97 149 0.0 4.0 0.00 0.00 0.00 43 1015.8
20260830220201 95 150 1.0 2.0 0.00 0.00 0.00 46 1015.7
20260830215700 94 44 0.0 1.0 0.00 0.00 0.00 48 1015.9
20260830215155 94 338 0.0 2.0 0.00 0.00 0.00 46 1015.9
20260830214650 96 115 2.0 2.0 0.00 0.00 0.00 43 1015.8
20260830214144 98 129 0.0 1.0 0.00 0.00 0.00 43 1015.8
20260830213643 97 82 0.0 2.0 0.00 0.00 0.00 43 1015.7
20260830213139 95 141 0.0 2.0 0.00 0.00 0.00 49 1015.6
20260830212635 93 97 1.0 2.0 0.00 0.00 0.00 48 1015.8
20260830212130 93 111 0.0 2.0 0.00 0.00 0.00 50 1015.9
20260830211625 94 24 0.0 2.0 0.00 0.00 0.00 46 1016.0
20260830211124 95 314 0.0 1.0 0.00 0.00 0.00 47 1015.9
20260830210620 95 71 0.0 2.0 0.00 0.00 0.00 48 1016.0
20260830210119 95 232 0.0 1.0 0.00 0.00 0.00 45 1015.9
20260830205616 95 132 1.0 2.0 0.00 0.00 0.00 45 1016.0
20260830205112 95 97 1.0 2.0 0.00 0.00 0.00 48 1016.0
20260830204612 95 330 0.0 2.0 0.00 0.00 0.00 45 1016.2
20260830204111 95 168 2.0 2.0 0.00 0.00 0.00 46 1016.1
20260830203608 95 313 0.0 3.0 0.00 0.00 0.00 47 1016.3
20260830203107 96 281 1.0 2.0 0.00 0.00 0.00 47 1016.3
20260830202607 96 276 0.0 2.0 0.00 0.00 0.00 45 1016.3
20260830202103 96 237 0.0 4.0 0.00 0.00 0.00 45 1016.5
20260830201602 97 241 1.0 3.0 0.00 0.00 0.00 46 1016.5
20260830201057 96 284 0.0 2.0 0.00 0.00 0.00 47 1016.7
20260830200553 96 129 2.0 3.0 0.00 0.00 0.00 44 1016.8
20260830200052 99 148 2.0 5.0 0.00 0.00 0.00 42 1016.8
20260830195548 98 272 0.0 1.0 0.00 0.00 0.00 44 1016.9
20260830195045 96 269 0.0 2.0 0.00 0.00 0.00 44 1016.9
20260830194545 95 309 0.0 2.0 0.00 0.00 0.00 46 1017.0
20260830194045 95 297 0.0 2.0 0.00 0.00 0.00 53 1017.0
20260830193544 95 11 0.0 3.0 0.00 0.00 0.00 47 1016.8
20260830193039 96 3 0.0 5.0 0.00 0.00 0.00 46 1017.2
20260830192535 96 121 2.0 3.0 0.00 0.00 0.00 46 1017.2
20260830192035 95 262 0.0 4.0 0.00 0.00 0.00 46 1017.3
20260830191530 94 329 0.0 2.0 0.00 0.00 0.00 50 1017.4
20260830191025 95 350 0.0 1.0 0.00 0.00 0.00 48 1017.5
20260830190521 96 212 0.0 3.0 0.00 0.00 0.00 46 1017.6
20260830190016 96 300 1.0 4.0 0.00 0.00 0.00 46 1017.8
20260830185509 96 315 0.0 4.0 0.00 0.00 0.00 47 1017.8
20260830185005 95 97 0.0 4.0 0.00 0.00 0.00 50 1017.9
20260830184504 95 121 2.0 3.0 0.00 0.00 0.00 48 1017.9
20260830183954 95 15 0.0 4.0 0.00 0.00 0.00 47 1017.9
20260830183453 95 304 0.0 2.0 0.00 0.00 0.00 54 1017.9
20260830182949 94 147 0.0 4.0 0.00 0.00 0.00 51 1018.1
20260830182445 94 127 1.0 2.0 0.00 0.00 0.00 51 1018.2
20260830181941 95 1 1.0 2.0 0.00 0.00 0.00 51 1018.0
20260830181437 95 281 0.0 2.0 0.00 0.00 0.00 52 1018.2
20260830180936 94 305 0.0 2.0 0.00 0.00 0.00 50 1018.5
20260830180436 93 195 0.0 2.0 0.00 0.00 0.00 53 1018.4
20260830175935 92 323 0.0 1.0 0.00 0.00 0.00 54 1018.5
20260830175434 93 129 1.0 4.0 0.00 0.00 0.00 51 1018.4
20260830174930 93 265 0.0 3.0 0.00 0.00 0.00 52 1018.5
20260830174426 94 243 1.0 3.0 0.00 0.00 0.00 52 1018.6
20260830173921 94 237 0.0 2.0 0.00 0.00 0.00 53 1018.5
20260830173416 93 243 0.0 2.0 0.00 0.00 0.00 54 1018.5
20260830172912 93 214 0.0 3.0 0.00 0.00 0.00 56 1018.4
20260830172408 93 299 1.0 4.0 0.00 0.00 0.00 53 1018.7
20260830171903 93 259 0.0 3.0 0.00 0.00 0.00 55 1018.8
20260830171359 91 294 1.0 2.0 0.00 0.00 0.00 62 1018.9
20260830170859 91 213 1.0 2.0 0.00 0.00 0.00 58 1019.0
20260830170359 91 259 0.0 3.0 0.00 0.00 0.00 59 1019.0
20260830165857 89 263 0.0 2.0 0.00 0.00 0.00 62 1019.1
20260830165354 89 287 0.0 2.0 0.00 0.00 0.00 61 1019.1
20260830164850 90 276 0.0 2.0 0.00 0.00 0.00 60 1019.3
20260830164345 91 124 0.0 3.0 0.00 0.00 0.00 60 1019.1
20260830163842 92 128 0.0 3.0 0.00 0.00 0.00 58 1019.3
20260830163337 93 261 1.0 2.0 0.00 0.00 0.00 56 1019.3
20260830162837 93 120 2.0 5.0 0.00 0.00 0.00 53 1019.2
20260830162334 92 135 0.0 2.0 0.00 0.00 0.00 57 1019.3
20260830161834 91 268 1.0 2.0 0.00 0.00 0.00 60 1019.3
20260830161333 92 228 2.0 2.0 0.00 0.00 0.00 61 1019.3
20260830160828 91 277 1.0 3.0 0.00 0.00 0.00 60 1019.6
20260830160324 91 263 2.0 4.0 0.00 0.00 0.00 60 1019.3
20260830155819 90 129 1.0 6.0 0.00 0.00 0.00 61 1019.4
20260830155316 91 130 2.0 3.0 0.00 0.00 0.00 62 1019.4
20260830154816 91 173 1.0 3.0 0.00 0.00 0.00 60 1019.5
20260830154311 90 243 2.0 3.0 0.00 0.00 0.00 62 1019.3
20260830153808 90 298 2.0 4.0 0.00 0.00 0.00 63 1019.3
20260830153303 90 68 1.0 6.0 0.00 0.00 0.00 61 1019.3
20260830152801 89 22 0.0 2.0 0.00 0.00 0.00 65 1019.4
20260830152257 90 110 2.0 3.0 0.00 0.00 0.00 60 1019.1
20260830151756 90 284 0.0 2.0 0.00 0.00 0.00 62 1019.3
20260830151255 89 192 2.0 3.0 0.00 0.00 0.00 63 1019.3
20260830150751 89 232 3.0 3.0 0.00 0.00 0.00 64 1019.4
20260830150250 89 129 0.0 4.0 0.00 0.00 0.00 64 1019.2
20260830145745 88 119 2.0 2.0 0.00 0.00 0.00 65 1019.3
20260830145240 88 271 0.0 2.0 0.00 0.00 0.00 66 1019.2
20260830144735 87 251 0.0 3.0 0.00 0.00 0.00 66 1019.4
20260830144232 87 95 0.0 5.0 0.00 0.00 0.00 66 1019.3
20260830143728 87 120 2.0 6.0 0.00 0.00 0.00 67 1019.2
20260830143225 86 113 1.0 2.0 0.00 0.00 0.00 69 1019.4
20260830142721 86 108 3.0 5.0 0.00 0.00 0.00 68 1019.5
20260830142216 86 67 1.0 3.0 0.00 0.00 0.00 67 1019.4
20260830141711 86 203 0.0 2.0 0.00 0.00 0.00 68 1019.3
20260830141206 86 124 3.0 4.0 0.00 0.00 0.00 67 1019.4
20260830140701 86 43 0.0 2.0 0.00 0.00 0.00 69 1019.3
20260830140156 86 109 2.0 3.0 0.00 0.00 0.00 69 1019.3
20260830135651 85 109 0.0 3.0 0.00 0.00 0.00 72 1019.3
20260830135146 84 252 0.0 2.0 0.00 0.00 0.00 72 1019.5
20260830134642 84 93 2.0 2.0 0.00 0.00 0.00 72 1019.3
20260830134137 84 359 0.0 5.0 0.00 0.00 0.00 70 1019.4
20260830133633 85 108 0.0 2.0 0.00 0.00 0.00 70 1019.4
20260830133127 84 241 1.0 2.0 0.00 0.00 0.00 70 1019.4
20260830132624 84 85 0.0 6.0 0.00 0.00 0.00 71 1019.3